Flag for Germany Weather past 2 weeks in Nürtingen, Baden-Württemberg, Germany

Now
68 °F

Sunny.


Feels Like: 68 °F
Forecast: 62 / 89 °F
Wind: 3 mph from East

Location: Stuttgart-Echterdingen

Current Time: Jul 1, 2015 at 9:07:13 AM

Latest Report: Jul 1, 2015 at 8:20 AM


Visibility: 10 mi

Pressure: 30.12 "Hg

Humidity: 73%

Dew point: 59 °F

Location of NürtingenLocation

Historic Weather in Nürtingen — Graph

°F

Nürtingen temperature yesterday

Maximum temperature yesterday: 84 °F (at 4:20 PM)
Minimum temperature yesterday: 57 °F (at 6:20 AM)
Average temperature yesterday: 72 °F

Past Weeks' High & Low Weather Summary

 TemperatureHumidityPressure
High84 °F (Jun 30, 4:20 PM)100% (Jun 18, 3:50 PM)30.24 "Hg (Jun 18, 3:50 PM)
Low46 °F (Jun 24, 4:50 AM)31% (Jun 30, 4:50 PM)29.74 "Hg (Jun 22, 8:50 PM)
Average61 °F72%30.11 "Hg
* Reported Jun 16 7:20 AM — Jul 1 7:50 AM, Nürtingen, Weather by CustomWeather, © 2015

Note: Actual official high and low records may vary slightly from our data, if they occured in-between our weather recording intervals... More about our weather records

Advertising

Nürtingen weather history for previous 24 hours

 ConditionsComfort  
Time TempWeatherWind HumidityBarometerVisibility
7:50 AM
Wed, Jul 1
68 °FSunny.2 mph64%30.12 "Hg10 mi
7:20 AM64 °FSunny.2 mph83%30.12 "Hg10 mi
6:50 AM63 °FSunny.1 mph77%30.12 "Hg10 mi
6:20 AM61 °FClear.1 mph83%30.12 "Hg10 mi
5:50 AM59 °FClear.1 mph82%30.12 "Hg10 mi
5:20 AM59 °FClear.2 mph82%30.12 "Hg10 mi
4:50 AM59 °FClear.5 mph82%30.12 "Hg10 mi
4:20 AM61 °FPassing clouds.3 mph77%30.12 "HgN/A
3:50 AM61 °FClear.2 mph77%30.12 "Hg10 mi
3:20 AM63 °FClear.2 mph73%30.12 "Hg10 mi
2:50 AM63 °FClear.2 mph73%30.12 "Hg10 mi
2:20 AM64 °FClear.2 mph68%30.12 "Hg10 mi
1:50 AM64 °FClear.3 mph68%30.12 "Hg10 mi
1:20 AM64 °FClear.1 mph73%30.12 "Hg10 mi
12:50 AM66 °FClear.1 mph64%30.12 "Hg10 mi
12:20 AM68 °FClear.2 mph60%30.12 "Hg10 mi
11:50 PM
Tue, Jun 30
68 °FPassing clouds.3 mph64%30.12 "HgN/A
11:20 PM72 °FClear.2 mph53%30.12 "Hg10 mi
10:50 PM72 °FClear.1 mph57%30.12 "Hg10 mi
10:20 PM73 °FSunny.2 mph50%30.12 "Hg10 mi
9:50 PM75 °FSunny.5 mph47%30.12 "Hg10 mi
9:20 PM77 °FSunny.5 mph44%30.12 "Hg10 mi
8:50 PM79 °FSunny.7 mph45%30.09 "Hg10 mi
8:20 PM81 °FSunny.7 mph39%30.09 "Hg10 mi
7:50 PM82 °FSunny.6 mph32%30.09 "Hg10 mi
6:50 PM84 °FPassing clouds.5 mph31%30.09 "HgN/A
6:20 PM84 °FPassing clouds.3 mph33%30.09 "HgN/A
5:50 PM84 °FPassing clouds.6 mph31%30.12 "HgN/A
4:50 PM84 °FPassing clouds.3 mph31%30.12 "HgN/A
4:20 PM84 °FPassing clouds.5 mph33%30.12 "HgN/A
3:50 PM82 °FSunny.5 mph35%30.12 "Hg10 mi
2:50 PM82 °FSunny.2 mph35%30.15 "Hg10 mi
2:20 PM82 °FSunny.3 mph37%30.15 "Hg10 mi
1:50 PM82 °FSunny.5 mph42%30.15 "Hg10 mi
1:20 PM81 °FSunny.2 mph45%30.15 "Hg10 mi
12:50 PM81 °FPassing clouds.6 mph48%30.15 "HgN/A
12:20 PM79 °FPassing clouds.5 mph51%30.18 "HgN/A
11:50 AM79 °FPassing clouds.6 mph51%30.18 "HgN/A
11:20 AM77 °FPassing clouds.3 mph57%30.18 "HgN/A
10:50 AM77 °FPassing clouds.2 mph61%30.18 "HgN/A
10:20 AM75 °FPassing clouds.2 mph65%30.18 "HgN/A
9:50 AM73 °FSunny.1 mph65%30.18 "Hg10 mi
9:20 AM72 °FSunny.2 mph65%30.18 "Hg10 mi
Weather by CustomWeather, © 2015

See weather overviewHow to use our weather pages